Wind_Speed
4 4 3 3 3 3 2 2 2 2 2 2 2 2 2 3 3 2 3 3 3 3 4 4 4 4 4 4 5 5 5 6 7 7 7 7 8 8 9 9 9 9 9
3 3 3 2 2 2 1 1 1 2 2 3 3 4 4 4 4 3 3 3 3 3 4 5 4 4 5 6 7 7 7 8 8 7 8 9 9 9 9 10 10 10 10
3 3 2 2 1 1 1 1 0 1 2 3 3 4 4 4 4 4 4 4 4 4 5 5 6 6 6 6 7 8 8 9 9 8 9 10 10 10 10 11 12 12 12
4 3 2 2 2 1 1 2 3 2 2 2 3 4 4 5 5 5 5 5 6 5 6 7 7 7 7 7 8 8 9 9 9 10 10 10 11 11 12 12 12 13 14
5 4 4 3 3 3 2 2 3 3 3 3 4 5 6 6 6 6 6 6 6 6 7 8 8 8 8 8 9 10 10 10 10 11 11 11 11 12 12 13 13 14 14
5 5 5 5 4 4 3 3 4 4 4 5 5 6 6 6 7 7 7 7 7 8 9 9 9 9 9 10 11 11 11 11 12 12 12 12 13 13 13 13 14 14 15
5 6 6 6 6 5 5 5 5 5 5 6 6 6 7 7 7 8 8 8 9 10 11 11 11 11 11 12 12 12 13 13 13 13 13 14 14 14 14 15 15 16 16
6 7 7 7 6 6 6 6 7 6 7 7 7 7 8 8 9 9 9 10 11 11 12 12 12 13 13 14 13 13 13 13 13 14 14 14 15 15 15 15 16 17 17
7 7 7 7 7 7 7 7 7 7 8 8 9 9 9 10 10 11 11 12 12 13 13 13 14 15 14 14 14 14 14 14 15 15 15 15 15 16 16 16 16 18 18
8 8 8 7 8 8 8 8 8 8 9 9 10 10 11 11 11 12 13 13 13 14 14 14 15 15 15 15 15 15 15 15 16 16 16 16 16 17 18 18 18 18 18
10 9 9 8 8 9 9 9 10 10 10 10 11 11 12 12 12 13 13 14 14 15 14 14 15 15 16 16 16 16 17 17 17 18 17 18 18 18 18 18 18 18 18
11 10 10 9 9 9 10 10 11 11 12 12 11 11 12 13 13 14 14 14 15 15 15 15 16 16 16 16 17 17 18 18 19 19 19 20 19 19 19 19 19 19 19
11 11 10 10 10 10 10 11 11 12 12 12 13 13 14 14 14 15 15 15 16 16 16 16 16 16 17 17 17 17 18 19 20 20 20 20 20 19 20 20 20 20 20
13 12 12 11 11 11 11 12 12 12 13 13 14 14 14 15 15 16 16 16 16 16 15 17 17 17 17 17 17 17 18 19 20 20 20 20 20 20 21 21 21 21 21
13 13 13 13 13 13 13 13 13 13 13 13 13 14 14 15 15 16 16 16 16 15 16 17 17 18 18 18 18 17 18 19 20 20 20 21 21 21 21 22 22 22 23
14 14 13 14 14 14 14 13 13 13 13 13 13 14 14 14 14 15 16 16 16 17 17 16 17 18 19 19 20 20 20 19 19 19 20 20 21 22 22 23 23 23 23
15 15 14 14 14 14 14 14 13 13 13 13 13 14 14 15 16 16 16 16 16 17 17 17 17 17 18 19 19 19 19 18 18 19 20 21 22 22 23 23 23 24 24
15 15 15 15 14 14 14 14 14 13 13 12 13 13 14 14 14 14 15 16 17 18 18 17 17 18 17 17 18 18 19 19 20 20 21 22 23 23 24 23 24 24 24
16 16 15 15 15 15 14 14 14 13 13 13 13 13 13 14 15 16 17 18 18 18 17 17 17 17 17 18 18 19 19 19 20 21 22 22 23 23 24 23 23 23 23
17 17 16 16 16 15 15 14 14 14 14 14 14 14 15 16 17 17 18 18 18 18 18 18 18 18 18 19 19 19 19 19 20 21 22 23 23 23 23 23 23 24 25
18 18 17 17 17 16 16 16 16 16 16 16 16 16 16 18 18 19 19 19 19 19 19 18 18 18 18 18 19 20 20 20 21 22 22 23 23 23 23 23 24 25 25
19 18 18 18 17 17 17 17 17 17 17 17 17 18 19 19 20 20 20 21 20 20 19 19 18 18 19 20 21 21 22 22 22 23 23 23 24 24 24 25 26 26 26
19 19 19 19 18 18 18 18 18 19 19 19 19 19 20 20 20 21 21 21 21 21 20 20 20 20 21 22 22 23 23 23 23 24 24 24 24 25 25 26 26 27 27
20 20 20 20 19 19 19 19 19 20 20 20 20 20 20 20 21 21 21 20 20 21 20 20 21 22 22 23 24 24 24 24 25 25 25 26 26 26 26 26 26 27 28
21 21 21 21 20 20 20 20 20 20 21 21 20 21 21 21 21 22 21 21 21 21 22 23 23 24 24 25 26 26 26 25 25 26 26 26 26 26 26 26 26 27 28
22 22 21 21 21 20 20 21 21 21 21 21 21 21 21 21 21 22 22 21 22 22 23 23 24 24 25 26 27 27 26 26 26 26 26 27 26 26 26 26 27 27 27
Wind_Direction
86 81 70 90 116 136 149 169 184 209 220 226 250 273 293 307 312 320 326 330 335 342 339 337 331 320 320 326 329 323 323 321 309 296 286 283 283 280 277 273 278 280 280
74 66 59 56 73 109 140 183 190 222 247 256 263 273 290 299 299 311 322 329 326 326 322 321 325 315 309 310 316 316 312 312 310 304 293 286 287 284 279 275 277 278 279
50 43 22 21 10 32 341 313 313 260 263 271 279 282 293 301 298 301 303 304 308 315 317 312 310 311 311 309 309 309 308 305 305 303 298 290 286 286 281 280 278 275 275
27 24 359 354 346 2 335 325 329 333 321 302 302 299 301 304 303 298 299 297 299 303 309 310 306 305 305 304 304 303 308 303 303 301 300 295 287 286 285 285 281 276 275
20 19 5 350 347 349 345 330 321 310 307 311 316 315 304 296 299 299 305 303 296 297 301 304 301 299 298 297 299 300 302 303 302 300 299 299 295 291 287 285 283 280 276
14 5 360 348 339 337 331 323 318 306 297 304 310 313 310 299 297 295 298 301 301 296 297 298 295 294 295 297 297 298 299 301 300 298 300 299 295 292 290 288 284 282 279
1 356 350 344 343 337 328 316 313 308 303 298 300 305 305 301 300 297 296 295 295 294 295 294 292 295 296 297 296 294 295 296 296 294 294 295 293 291 291 288 285 284 285
352 345 344 341 338 330 328 320 314 309 302 298 294 293 297 299 300 301 303 302 298 295 294 295 295 296 296 294 292 292 293 293 295 294 292 292 293 291 291 289 288 286 283
344 344 338 334 331 326 325 318 317 314 305 301 298 295 295 295 300 302 302 300 299 297 296 296 297 297 295 294 293 293 293 292 294 295 292 291 293 294 294 293 289 287 283
345 337 332 327 322 318 319 316 311 309 304 301 301 298 296 298 300 302 301 299 297 299 297 295 295 296 294 292 290 291 293 292 294 295 293 292 292 292 292 292 292 290 286
347 340 331 326 318 314 310 308 306 300 299 300 300 298 296 299 303 304 303 301 299 299 297 297 297 296 293 291 287 289 290 291 292 292 292 292 291 291 291 292 291 292 289
347 343 336 331 323 316 309 305 304 299 298 297 299 300 299 299 302 305 305 304 303 301 299 297 296 296 295 294 292 289 288 288 288 290 290 290 290 291 291 292 291 290 290
347 342 335 330 327 319 311 307 305 303 301 299 299 300 301 301 302 303 305 306 305 303 301 299 297 296 296 297 298 295 292 290 290 288 287 287 290 291 292 292 292 290 290
348 344 338 331 327 322 314 308 305 305 305 302 300 300 302 302 303 304 306 306 306 305 301 300 300 301 300 298 297 298 298 295 293 290 289 289 291 291 292 291 292 291 291
349 343 340 335 331 326 318 312 308 305 302 302 301 301 302 303 304 305 305 305 307 309 304 302 301 302 300 299 300 299 299 296 294 293 291 290 289 291 294 296 295 294 293
347 346 345 340 335 332 328 322 316 310 303 300 301 302 304 304 306 306 305 308 308 307 306 304 303 302 302 299 301 297 302 300 297 296 295 294 294 295 296 296 295 295 295
343 342 342 340 338 335 332 326 319 316 313 308 306 305 305 306 306 306 307 309 308 309 308 308 308 308 307 304 302 301 304 305 302 301 301 300 298 297 297 297 296 295 294
340 341 340 338 338 336 335 333 329 324 321 317 314 311 309 309 310 310 309 308 307 307 307 307 307 307 308 309 307 307 307 306 306 303 301 301 299 298 297 296 296 295 295
334 334 336 335 334 333 332 333 333 331 328 322 317 314 313 313 313 312 312 311 309 309 310 310 308 308 309 309 309 308 306 305 302 302 301 303 302 300 298 297 296 295 296
331 332 330 330 329 329 328 327 326 326 326 324 320 318 316 315 315 314 313 313 312 311 310 311 309 309 308 308 309 310 308 306 305 305 304 304 304 302 300 299 298 297 297
328 328 327 326 325 323 322 321 321 322 322 321 320 317 315 314 313 312 312 312 312 311 309 309 310 309 308 309 310 311 310 307 307 307 306 305 305 304 301 300 300 300 299
325 325 325 324 321 319 318 318 318 319 319 319 318 317 315 315 314 314 313 311 310 309 308 308 310 309 309 309 310 310 309 307 306 307 307 307 305 305 304 303 302 303 302
324 324 323 322 321 318 317 317 316 317 317 317 318 318 317 317 317 315 313 310 307 306 307 309 309 310 310 311 310 310 309 307 307 307 307 307 306 305 305 304 304 304 304
321 321 321 321 319 317 316 316 316 316 316 316 317 317 318 317 318 318 315 312 309 308 308 308 308 309 309 311 311 310 308 307 306 306 307 307 306 304 304 304 303 304 305
317 318 317 319 318 317 316 315 316 315 316 316 316 317 317 317 316 316 316 314 311 309 308 306 306 307 307 309 310 309 307 306 306 307 307 307 306 304 304 304 304 305 305
314 315 314 315 316 315 315 314 315 314 314 314 314 315 316 315 315 315 314 313 311 309 309 308 307 307 308 309 310 310 308 306 305 306 306 307 306 305 304 304 305 305 305
Height
5898 5898 5898 5898 5898 5899 5899 5899 5899 5899 5899 5900 5900 5900 5900 5900 5900 5899 5899 5899 5898 5898 5898 5898 5897 5897 5897 5896 5896 5895 5895 5894 5894 5894 5894 5893 5893 5893 5892 5892 5892 5892 5892
5899 5899 5899 5899 5899 5899 5899 5899 5899 5899 5899 5899 5899 5899 5899 5899 5899 5899 5899 5898 5898 5898 5898 5897 5897 5896 5896 5896 5895 5894 5894 5893 5893 5892 5892 5891 5891 5890 5890 5890 5890 5890 5889
5900 5900 5899 5899 5900 5900 5900 5900 5899 5899 5899 5899 5899 5899 5899 5899 5899 5898 5898 5898 5897 5897 5897 5896 5896 5895 5895 5894 5894 5893 5892 5892 5891 5890 5889 5889 5888 5888 5888 5888 5887 5887 5887
5900 5900 5900 5900 5899 5899 5900 5899 5899 5899 5899 5899 5898 5898 5898 5898 5898 5897 5897 5897 5896 5896 5896 5895 5895 5894 5894 5893 5892 5892 5891 5890 5889 5888 5887 5886 5886 5886 5885 5885 5884 5884 5884
5900 5900 5900 5900 5899 5900 5900 5899 5899 5899 5899 5898 5898 5898 5897 5897 5896 5896 5896 5895 5895 5895 5895 5894 5893 5893 5892 5892 5891 5890 5889 5888 5887 5886 5885 5884 5883 5883 5882 5882 5881 5880 5880
5901 5901 5900 5900 5900 5900 5899 5899 5899 5898 5898 5898 5897 5897 5896 5896 5895 5895 5894 5894 5894 5893 5893 5892 5892 5891 5890 5889 5889 5888 5887 5886 5885 5884 5883 5882 5881 5880 5879 5878 5878 5877 5877
5901 5900 5900 5900 5900 5899 5898 5898 5898 5897 5897 5896 5896 5896 5895 5894 5894 5893 5893 5892 5892 5891 5891 5890 5889 5889 5888 5887 5886 5885 5884 5883 5882 5881 5880 5879 5878 5877 5876 5875 5874 5873 5873
5902 5901 5901 5900 5899 5899 5898 5897 5897 5896 5896 5895 5895 5894 5894 5893 5892 5891 5891 5890 5889 5889 5888 5887 5887 5886 5885 5884 5883 5882 5881 5880 5879 5878 5877 5876 5874 5873 5872 5872 5871 5870 5869
5901 5901 5900 5899 5898 5898 5897 5896 5896 5895 5894 5894 5893 5892 5892 5891 5890 5889 5888 5888 5887 5886 5885 5884 5883 5883 5881 5880 5880 5879 5878 5877 5876 5875 5873 5872 5871 5870 5869 5868 5867 5865 5865
5901 5900 5899 5897 5897 5897 5896 5895 5895 5894 5893 5892 5891 5890 5890 5889 5888 5887 5886 5885 5884 5883 5882 5881 5880 5879 5877 5876 5876 5875 5874 5873 5872 5871 5870 5869 5867 5866 5865 5863 5862 5861 5860
5900 5899 5898 5896 5896 5896 5895 5894 5893 5892 5891 5890 5889 5889 5887 5886 5885 5885 5883 5882 5881 5880 5878 5877 5876 5875 5874 5872 5871 5871 5870 5869 5868 5867 5865 5864 5863 5861 5860 5859 5858 5856 5855
5900 5898 5897 5896 5895 5894 5893 5892 5891 5890 5889 5888 5887 5886 5885 5884 5883 5882 5880 5879 5878 5876 5875 5873 5872 5871 5870 5868 5867 5866 5865 5864 5863 5862 5861 5859 5858 5857 5856 5854 5853 5851 5850
5899 5898 5896 5895 5894 5893 5892 5890 5889 5888 5887 5886 5885 5883 5882 5881 5880 5878 5877 5876 5874 5873 5871 5870 5868 5867 5865 5864 5863 5861 5861 5860 5858 5857 5856 5855 5853 5852 5851 5849 5848 5846 5845
5898 5897 5895 5894 5892 5891 5889 5888 5887 5885 5884 5883 5882 5880 5879 5878 5876 5875 5874 5872 5870 5869 5868 5866 5864 5863 5861 5860 5859 5857 5856 5855 5853 5852 5851 5850 5848 5847 5845 5844 5842 5841 5839
5898 5896 5894 5893 5891 5889 5887 5886 5884 5883 5881 5880 5879 5877 5876 5874 5873 5871 5870 5868 5867 5866 5864 5862 5861 5859 5857 5856 5854 5852 5851 5850 5849 5847 5846 5844 5843 5841 5840 5838 5836 5835 5833
5897 5895 5893 5891 5889 5887 5885 5883 5881 5880 5878 5877 5875 5874 5873 5871 5870 5868 5866 5865 5863 5862 5860 5858 5857 5855 5853 5851 5850 5848 5847 5845 5844 5842 5841 5839 5837 5836 5834 5832 5830 5829 5827
5896 5894 5892 5890 5888 5886 5883 5881 5879 5877 5875 5874 5872 5871 5870 5868 5866 5865 5863 5861 5860 5858 5857 5855 5853 5851 5849 5847 5845 5844 5842 5841 5839 5838 5836 5834 5832 5830 5828 5826 5824 5822 5820
5895 5893 5891 5889 5887 5884 5882 5879 5877 5875 5873 5871 5870 5868 5867 5865 5863 5861 5860 5858 5856 5854 5853 5851 5849 5847 5845 5843 5841 5840 5838 5836 5834 5833 5831 5829 5826 5824 5822 5820 5817 5815 5813
5894 5892 5890 5888 5885 5882 5880 5878 5875 5873 5871 5869 5867 5866 5864 5862 5860 5858 5856 5854 5852 5850 5848 5847 5845 5843 5841 5839 5837 5835 5833 5831 5829 5827 5826 5823 5821 5818 5816 5813 5811 5809 5807
5892 5890 5888 5885 5883 5881 5878 5876 5874 5871 5869 5867 5865 5863 5861 5859 5857 5854 5852 5850 5848 5846 5844 5842 5840 5839 5837 5834 5832 5830 5828 5826 5825 5822 5820 5818 5815 5812 5810 5807 5805 5802 5800
5890 5888 5885 5883 5881 5878 5876 5874 5872 5869 5867 5865 5862 5860 5857 5855 5853 5850 5848 5846 5844 5842 5840 5838 5836 5834 5832 5830 5828 5825 5823 5821 5819 5817 5815 5812 5809 5806 5803 5801 5798 5795 5793
5888 5885 5883 5880 5878 5876 5873 5871 5869 5866 5864 5861 5859 5857 5854 5851 5849 5846 5844 5841 5839 5837 5835 5834 5832 5830 5828 5825 5823 5820 5818 5816 5814 5812 5808 5806 5803 5800 5797 5794 5791 5788 5786
5885 5882 5880 5877 5875 5873 5870 5868 5865 5863 5860 5858 5855 5853 5850 5847 5844 5842 5839 5837 5835 5832 5831 5829 5827 5825 5822 5820 5818 5815 5812 5810 5807 5805 5802 5799 5796 5793 5790 5787 5784 5781 5778
5882 5879 5877 5874 5872 5869 5867 5864 5862 5859 5856 5854 5851 5848 5846 5843 5840 5837 5835 5832 5830 5827 5825 5824 5821 5819 5817 5814 5812 5809 5806 5804 5801 5798 5795 5793 5789 5786 5783 5780 5777 5774 5770
5878 5876 5873 5871 5868 5866 5863 5861 5858 5855 5853 5850 5847 5844 5841 5839 5836 5833 5830 5828 5825 5823 5821 5818 5816 5813 5811 5808 5805 5802 5799 5796 5794 5791 5788 5785 5782 5779 5776 5773 5769 5766 5763
5874 5872 5869 5867 5864 5862 5859 5857 5854 5851 5849 5846 5843 5840 5837 5834 5831 5828 5826 5823 5821 5818 5816 5813 5810 5808 5805 5802 5798 5795 5792 5790 5787 5784 5781 5778 5775 5772 5769 5765 5762 5759 5756